FW2567 Weather Reports


time (UTC)temp
F
wind
direction
speed
knots
gust
knots
rain 1hr
in
rain 24hr
in
rain mn
in
humidity
%
barometer
mb
20260903153031 47 269 0.9 3.5 0.00 0.36 0.01 97 1013.0
20260903151606 46 39 0.9 5.2 0.00 0.36 0.01 97 1013.1
20260903144529 45 271 0.9 4.3 0.00 0.36 0.01 97 1012.8
20260903143102 44 294 0.9 2.6 0.00 0.36 0.01 97 1012.8
20260903141532 44 274 0.9 3.5 0.00 0.36 0.01 97 1012.7
20260903134531 43 276 0.0 2.6 0.00 0.36 0.01 97 1012.4
20260903133031 42 195 0.9 4.3 0.00 0.36 0.01 97 1012.3
20260903131528 42 169 0.0 2.6 0.00 0.36 0.01 97 1012.2
20260903123031 41 145 0.0 2.6 0.00 0.36 0.01 96 1012.3
20260903121530 41 321 0.0 1.7 0.00 0.36 0.01 96 1012.2
20260903120031 42 131 0.9 3.5 0.00 0.36 0.01 96 1012.2
20260903113031 42 167 0.9 3.5 0.00 0.36 0.01 96 1012.3
20260903111530 41 179 1.7 5.2 0.00 0.36 0.01 96 1012.1
20260903110030 41 215 1.7 5.2 0.00 0.36 0.01 96 1012.0
20260903104647 41 165 0.9 3.5 0.00 0.36 0.01 96 1012.0
20260903101530 43 159 2.6 5.2 0.00 0.36 0.01 96 1011.7
20260903100031 43 151 1.7 5.2 0.01 0.36 0.01 96 1011.8
20260903093031 44 282 0.0 0.9 0.01 0.36 0.01 96 1011.9
20260903091530 44 141 1.7 4.3 0.01 0.36 0.00 96 1011.8
20260903090030 44 195 0.0 2.6 0.00 0.35 0.00 96 1012.0
20260903084529 45 171 0.9 3.5 0.00 0.35 0.00 96 1012.0
20260903083108 45 149 1.7 5.2 0.00 0.35 0.00 96 1011.9
20260903081607 45 154 2.6 4.3 0.00 0.35 0.00 96 1011.9
20260903080029 45 147 2.6 4.3 0.00 0.35 0.00 96 1011.8
20260903073030 46 158 0.9 3.5 0.00 0.35 0.00 95 1011.4
20260903071530 46 254 0.0 3.5 0.00 0.35 0.00 95 1011.5
20260903070029 46 249 0.9 3.5 0.00 0.35 0.00 95 1011.4
20260903064530 46 225 0.9 4.3 0.00 0.35 0.35 95 1011.4
20260903063028 46 28 0.0 2.6 0.00 0.35 0.35 95 1011.5
20260903060105 46 289 0.0 3.5 0.00 0.35 0.35 95 1011.6
20260903054532 47 134 0.9 2.6 0.00 0.35 0.35 94 1011.5
20260903053030 47 19 0.0 2.6 0.00 0.35 0.35 94 1011.5
20260903051531 48 294 1.7 5.2 0.00 0.35 0.35 94 1011.3
20260903050030 48 332 2.6 5.2 0.00 0.35 0.35 94 1011.3
20260903043056 49 246 0.0 3.5 0.00 0.35 0.35 94 1011.1
20260903041530 50 239 0.9 5.2 0.00 0.35 0.35 94 1011.0
20260903040030 50 226 2.6 7.0 0.00 0.35 0.35 94 1010.7
20260903034530 50 201 2.6 7.8 0.00 0.35 0.35 94 1010.7
20260903031531 52 233 0.9 4.3 0.05 0.35 0.35 94 1010.6
20260903030032 53 187 2.6 4.3 0.08 0.35 0.35 94 1010.5
20260903023030 55 118 0.9 3.5 0.14 0.34 0.30 94 1010.4
20260903021606 55 356 0.0 3.5 0.11 0.30 0.27 94 1010.3
20260903020031 56 315 1.7 6.1 0.09 0.27 0.20 94 1009.9
20260903014530 56 290 2.6 6.1 0.04 0.20 0.20 94 1009.4
20260903013033 55 216 0.0 2.6 0.05 0.20 0.19 93 1009.5
20260903011530 56 218 0.9 2.6 0.05 0.19 0.18 93 1009.7
20260903004530 56 267 1.7 5.2 0.05 0.16 0.15 92 1009.7
20260903000030 56 284 0.9 3.5 0.03 0.11 0.11 91 1009.7
20260902234530 56 355 0.9 2.6 0.04 0.11 0.09 91 1009.6
20260902233106 57 21 0.9 3.5 0.02 0.09 0.09 92 1009.7
20260902230029 57 288 0.9 4.3 0.02 0.08 0.07 91 1009.9
20260902224529 57 273 2.6 6.1 0.02 0.07 0.07 91 1009.8
20260902223031 56 294 1.7 4.3 0.02 0.07 0.07 91 1009.7
20260902221532 56 293 2.6 6.1 0.03 0.07 0.06 90 1009.8
20260902220031 57 277 3.5 6.1 0.03 0.06 0.05 89 1009.7
20260902214533 57 297 1.7 6.1 0.03 0.05 0.05 88 1009.5
20260902213146 56 305 1.7 5.2 0.04 0.05 0.04 87 1009.4
20260902211530 57 339 2.6 4.3 0.03 0.04 0.03 86 1009.4
20260902204529 57 86 2.6 6.1 0.02 0.02 0.01 83 1009.5
20260902203030 57 11 2.6 6.1 0.01 0.01 0.01 80 1009.6
20260902201530 58 349 1.7 6.1 0.01 0.01 0.00 77 1009.8
20260902200031 58 175 1.7 7.8 0.00 0.00 0.00 75 1009.7
20260902194530 59 131 2.6 7.8 0.00 0.00 0.00 74 1009.7
20260902193031 60 339 1.7 6.1 0.00 0.00 0.00 76 1009.7
20260902191532 60 2 0.9 6.1 0.00 0.00 0.00 75 1009.7
20260902190030 61 25 0.0 2.6 0.00 0.00 0.00 74 1009.7
20260902184529 61 148 0.0 2.6 0.00 0.00 0.00 73 1009.7
20260902183034 62 217 1.7 3.5 0.00 0.00 0.00 73 1009.8
20260902181531 61 267 0.0 4.3 0.00 0.00 0.00 74 1009.6
20260902180030 60 292 0.0 0.9 0.00 0.00 0.00 74 1009.7
20260902174531 60 307 1.7 5.2 0.00 0.00 0.00 73 1009.7
20260902173032 61 273 3.5 6.1 0.00 0.00 0.00 73 1009.7
20260902171529 60 266 1.7 4.3 0.00 0.00 0.00 75 1009.8
20260902170032 59 272 0.9 3.5 0.00 0.00 0.00 76 1009.9
20260902164529 58 320 0.9 3.5 0.00 0.00 0.00 76 1010.2
20260902163030 58 326 0.9 3.5 0.00 0.00 0.00 77 1010.4
20260902160031 58 17 1.7 4.3 0.00 0.00 0.00 76 1010.7
20260902154647 58 12 1.7 3.5 0.00 0.00 0.00 79 1010.9